Dauntless Aviation
Greetings, Guest! To participate, [sign up for a free account] or [log in]
Airports Europe Italy
LIMC
MXP

Malpensa

Milano, ITALY

Airport Info
Edit

Location

Latitude / Longitude: 45°37'50"N / 8°43'41"E
  45°37.836'N / 8°43.686'E
  45.6306 / 8.7281

Nearby radio navigation aids

MAL MALPENSA VOR/DME on field.
MAL MALPENSA NDB. 346.3° 5.3nm from MAL to field.

Runway Information

Runway 17L/35R

Dimensions: 12861 x 197 ft.
Surface: ASP
 
Runway 17L
Runway 35R
Latitude: 45.642058 45.61575
Longitude: 8.730197 8.737497
Elevation: 745 ft. 745 ft.
Runway true heading: 168.2 348.2
 

Runway 17R/35L

Dimensions: 12861 x 197 ft.
Surface: ASP
 
Runway 17R
Runway 35L
Latitude: 45.645461 45.614797
Longitude: 8.718725 8.727208
Elevation: 764 ft. 764 ft.
Runway true heading: 168.2 348.2
 

Instrument Procedures

  Aircraft Parking Docking Chart - T2
  Aerodrome Ground Movement Chart
  Aerodrome Ground Movement Chart: Aircraft Code F
  Aerodrome Chart
  Aircraft Parking Docking Chart - T1

STARs (Standard Terminal Arrivals)

  Link Routes and STAR P-RNAV Milano Malpensa
  Link Routes and STAR NO-RNAV Milano Malpensa

IAPs (Instrument Approach Procedures)

  VOR Rwy 35R
  ILS-X Rwy 35L
  ILS Z Rwy 35R
  L Rwy 35R
  ILS Z Rwy 17L
  ILS Y Rwy 17L
  LOC Rwy 17L
  Visual Approach Chart
  VOR Rwy 17L
  Hotspot MAP (Not for Navigation)
  Low Visibility Procedures Chart
  ILS Z Rwy 35L
  ILS Y Rwy 35L
  ILS-Y Rwy 35R
  Aerodrome Obstacle Chart - Type A Rwy 35R/17L
  Aerodrome Obstacle Chart - Type A Rwy 35L/17R
  Precision Approach Terrain Chart Rwy 35R
  Precision Approach Terrain Chart Rwy 35L
  Assorted Information for LIMC

Departure Procedures

  Initial Climb Procedures and SID Rwy 17/R
  SID Rwy 35L/R 17L/R Transition SEGMENTS to ENROUTE
  Initial Climb Procedure and SID Rwy 35L
  Initial Climb Procedure and SID Rwy 35R
Satellite photo at:
Airport distance calculator
From:
Weather Reports

METAR

LIMC

LIMC 281350Z 17007KT 130V210 9999 BKN030TCU 27/18 Q1009 NOSIG
LIMN
7.3nm S
LIMN 281355Z 16007KT 130V190 9999 SCT020 FEW025TCU 28/18 Q1009 RMK BKN SCT080 VIS MIN 9999 BLK BLU
LSZA
24.3nm N
LSZA 281350Z 04008KT 010V070 9999 TSRA SCT045CB SCT050TCU 24/18 Q1009 WS ALL RWY NOSIG
LIML
24.7nm E
LIML 281350Z 17006KT 130V230 9999 SCT030 29/19 Q1009 NOSIG
LSZL
32.8nm N
LSZL 281350Z VRB02KT 9999 SCT050 BKN100 21/19 Q1010 RMK WHT

TAF

LIMC
TAF LIMC 281100Z 2812/2918 VRB05KT 9999 SCT030 SCT070 TEMPO 2812/2815 SHRA TEMPO 2815/2904 4000 TSRA TEMPO 2912/2918 4000 TSRA
LIMN
7.3nm S
TAF LIMN 281100Z 2812/2821 VRB04KT 9999 FEW030 SCT070 TEMPO 2812/2821 5000 TSRA FEW020CB BKN040
LSZA
24.3nm N
TAF LSZA 281125Z 2812/2821 VRB03KT 9999 BKN090 BECMG 2813/2815 OVC050 TEMPO 2815/2821 SHRA
LIML
24.7nm E
TAF LIML 281100Z 2812/2912 VRB05KT 9999 SCT030 SCT080 TEMPO 2812/2819 SHRA TEMPO 2819/2906 4000 TSRA
LSZL
32.8nm N
TAF AMD LSZL 281335Z 2813/2821 27004KT 9999 BKN040 OVC050 TEMPO 2815/2821 TSRA FEW040CB
Safelog

 

Dauntless Aviation

© 2007-2014 Dauntless Aviation, all rights reserved
Information provided via PilotNav comes from a variety of official and unofficial data sources. As errors are possible, do not use PilotNav for primary flight planning purposes. Verify any information that you receive via PilotNav with current and canonical charts and other official documents. The material in this database is subject to database copyrights held by Dauntless Aviation and may not be copied without the express permission of Dauntless Aviation - licenses for use of part of all of this data are available for purchase; enquire via the Dauntless Aviation helpdesk. A number of mechanisms and markers exist in the database to protect against and identify infringement / copyright. Automated queries against this website are stictly prohibited, and all activity is logged and analyzed.